Regional Weather Roundup
Issued by NWS Charleston, SC

Current Version | Previous Version | Graphics & Text | Print | Product List | Glossary On
Versions: 1 2 3 4 5 6 7 8 9 10 11 12 13 14 15 16 17 18 19 20 21 22 23 24 25 26 27 28 29 30 31 32 33 34 35 36 37 38 39 40 41 42 43 44 45 46 47 48 49 50
000 ASUS42 KCHS 291510 RWRCHS REGIONAL WEATHER ROUNDUP NATIONAL WEATHER SERVICE CHARLESTON SC 1100 AM EDT TUE JUL 29 2014 NOTE: "FAIR" INDICATES FEW OR NO CLOUDS BELOW 12,000 FEET WITH NO SIGNIFICANT WEATHER AND/OR OBSTRUCTIONS TO VISIBILITY. NOT ALL STATIONS ARE QUALITY CONTROLLED BY THE NATIONAL WEATHER SERVICE. USE DATA WITH CAUTION...ESPECIALLY DEWPOINT OBSERVATIONS. SCZ027-030-031-034>040-042>050-291600- ...SOUTH CAROLINA... CITY SKY/WX TMP DP RH WIND PRES REMARKS N CHARLESTON MOSUNNY 84 62 47 NE6 29.93R WATERFRONT PRK N/A 81 N/A N/A N8 N/A FORT JOHNSON NOT AVBL MOUNT PLEASANT FAIR 82 64 54 NE3 29.92S JOHNS ISLAND SUNNY 81 64 57 NE8 29.93R PINOPOLIS N/A 81 63 54 NE8 29.87R MONCKS CORNER N/A 82 66 57 E8 29.93S SUMMERVILLE FAIR 81 64 57 N7 29.95R BEAUFORT MCAS SUNNY 83 64 52 E10 29.93R BEAUFORT ARPT FAIR 81 68 65 NE8 29.93R HILTON HEAD IS SUNNY 82 68 61 N9 29.94R GEORGETOWN NOT AVBL WALTERBORO SUNNY 82 57 42 NE7 29.95R ORANGEBURG SUNNY 79 59 50 NE8 29.96R BARNWELL FAIR 81 61 50 NE6 29.96S AIKEN FAIR 79 61 53 N7 30.01R MANNING FAIR 81 63 54 NE6 29.95R KINGSTREE NOT AVBL COLUMBIA MOSUNNY 82 55 39 E7 29.96R SUMTER SUNNY 79 60 51 E8 29.95R FLORENCE SUNNY 81 61 50 VRB5 29.94S MYRTLE BEACH MOSUNNY 81 63 54 N12 29.91S N MYRTLE BEACH MOSUNNY 81 64 56 N6 29.91R $$ GAZ063-065-086>088-099>101-113>116-118-119-134-136>141-150-291600- ...GEORGIA... CITY SKY/WX TMP DP RH WIND PRES REMARKS SAVANNAH ARPT SUNNY 84 65 52 NE3 29.94R HUNTER AAF SUNNY 84 67 57 VRB5 29.92R FORT STEWART SUNNY 83 65 54 NE1 29.93R STATESBORO NOT AVBL SYLVANIA SUNNY 81 68 65 E3 29.96R CLAXTON FAIR 82 68 61 NE5 29.95S THOMSON SUNNY 81 66 60 NE5 30.03S AUGUSTA-BUSH SUNNY 82 60 47 E7 29.96S AUGUSTA-DANIEL SUNNY 82 57 42 VRB5 29.98R SWAINSBORO FAIR 82 66 57 NE3 29.98R VIDALIA N/A 82 64 54 CALM 29.97R ALMA SUNNY 84 63 49 VRB5 29.96R WAYCROSS SUNNY 88 68 51 NE3 29.95S HX 92 JESUP FAIR 86 68 54 CALM 29.95R BRUNSWICK SUNNY 86 63 45 CALM 29.94S SAINT SIMONS SUNNY 85 66 53 CALM 29.94R $$ SCZ027-028-034-036>038-045-046-048>050-GAZ119-141-291600- ...LAKE AND SUPPLEMENTAL COASTAL OBSERVATIONS... STATION/POSITION TIME TEMP WIND PRES WAVE SWELL AIR SEA DIR/SP/G HT/PER HT/PER/DIR (UTC) (F) (DEG/KT/KT) (MB) (FT/S) (FT/S/D) UPR LAKE MARION NOT AVBL WINYAH BAY 1400 77 20/ 8 1012.0S LAKE MURRAY 1400 77 80/ 5/ 6 1014.2R ACE BASIN NERRS 1400 80 20/ 4 1013.0S FORT PULASKI 1500 80 70/ 7/ 8 1013.7R SAPELO ISLAND 1400 84 360/ 5 1014.0R $$ ANZ835-935-AMZ111-154-330-350-352-354-374-450-454-472-291600- ...C-MAN AND BUOY OBSERVATIONS... STATION/POSITION TIME TEMP WIND PRES WAVE SWELL AIR SEA DIR/SP/G HT/PER HT/PER/DIR (UTC) (F) (DEG/KT/KT) (MB) (FT/S) (FT/S/D) FOLLY BEACH CMAN 1400 78 20/ 11/ 13 1013.3R BUOY 41004 1500 82 83 50/ 10/ 12 1011.6R 4/ 6 3/ 6 BUOY 41008 1500 83 85 30/ 6/ 6 1013.1R 2/ 4 2/100/ 8 5E ST. MARYS GA 1500 85 N/A 2/ 8 FRYING PAN BUOY NOT AVBL BUOY 41025 1500 VRB 12/ 16 1011.9R 3/ 6 3/170/ 6 CAPE LOOKOUT NC 1400 78 20/ 12/ 16 1011.8R BUOY 41002 1449 76 80 170/ 21/ 23 1013.4F 5/ 7 2/170/15 BUOY 41010 1500 84 84 240/ 16/ 17 1014.3R 6/ 6 2/110/ 8 BUOY 41012 NOT AVBL ST AUGUSTINE FL 1500 85 260/ 5/ 7 1014.8R CAPERS NEARSHORE 1400 79 50/ 14/ 16 N/A FRIPP NEARSHORE NOT AVBL $$

USA.gov is the U.S. government's official web portal to all federal, state and local government web resources and services.